Weather History for Wellsville, NY

Change the Weather History Date:

Saturday, June 29, 2013

  Actual Average (KDSV) Record (KDSV)
Temperature  
Mean Temperature 63 °F -  
Max Temperature 70 °F 80 °F 99 °F (1949)
Min Temperature 57 °F 56 °F 42 °F (1983)
Degree Days  
Heating Degree Days 2    
Growing Degree Days 13 (Base 50)    
Moisture  
Dew Point 59 °F    
Average Humidity 90    
Maximum Humidity 100    
Minimum Humidity 78    
Precipitation  
Precipitation 0.08 in - - ()
Sea Level Pressure  
Sea Level Pressure 29.62 in    
Wind  
Wind Speed 4 mph (SW)    
Max Wind Speed 13 mph    
Max Gust Speed 17 mph    
Visibility 8 miles    
Events Fog , Rain    
Averages and records for this station are not official NWS values.
T = Trace of Precipitation, MM = Missing Value Source: NWS Daily Summary

Daily Weather History Graph

Daily Weather History Graph

Search for Another Location

Airport:

Trip Planner

Search our weather history database for the weather conditions in past years. The results will help you decide how hot, cold, wet, or windy it might be!

Date:

Astronomy

Jun. 29, 2013 Rise Set
Actual Time 5:38 AM EDT 8:51 PM EDT
Civil Twilight 5:04 AM EDT 9:26 PM EDT
Nautical Twilight 4:20 AM EDT 10:10 PM EDT
Astronomical Twilight 3:26 AM EDT 11:04 PM EDT
Moon 12:12 AM EDT (6/29) 12:56 PM EDT (6/29)
Length of Visible Light 16h 21m
Length of Day
15h 12m
Waning Gibbous, 56% of the Moon is Illuminated
Jun 29
Waning Gibbous
Jun 30
Last Quarter
Jul 8
New
Jul 15
First Quarter
Jul 22
Full

Hourly Weather History & Observations

Time (EDT) Temp. Dew Point Humidity Pressure Visibility Wind Dir Wind Speed Gust Speed Precip Events Conditions
12:56 AM 59.0 °F 57.0 °F 93% 29.55 in 10.0 mi Calm Calm - N/A   Clear
1:16 AM 57.2 °F 57.2 °F 100% 29.58 in 2.0 mi Calm Calm - N/A   Partly Cloudy
1:18 AM 57.2 °F 55.4 °F 94% 29.58 in 0.8 mi Calm Calm - N/A   Scattered Clouds
1:25 AM 57.2 °F 57.2 °F 100% 29.58 in 0.2 mi Calm Calm - N/A Fog Fog
1:32 AM 57.2 °F 57.2 °F 100% 29.57 in 0.5 mi SW 3.5 mph - N/A Fog Fog
1:43 AM 57.2 °F 57.2 °F 100% 29.57 in 2.0 mi SW 3.5 mph - N/A   Mostly Cloudy
1:48 AM 57.2 °F 57.2 °F 100% 29.57 in 3.0 mi SW 3.5 mph - N/A   Mostly Cloudy
1:56 AM 57.9 °F 57.0 °F 97% 29.55 in 4.0 mi SW 4.6 mph - N/A   Scattered Clouds
2:03 AM 59.0 °F 57.2 °F 94% 29.57 in 10.0 mi WSW 4.6 mph - N/A   Mostly Cloudy
2:56 AM 60.1 °F 59.0 °F 96% 29.55 in 10.0 mi WSW 3.5 mph - N/A   Overcast
3:47 AM 60.8 °F 59.0 °F 94% 29.56 in 7.0 mi SW 3.5 mph - 0.00 in Rain Light Rain
3:56 AM 60.1 °F 59.0 °F 96% 29.54 in 6.0 mi South 3.5 mph - 0.00 in   Overcast
4:18 AM 60.8 °F 57.2 °F 88% 29.55 in 10.0 mi Calm Calm - N/A   Overcast
4:41 AM 60.8 °F 57.2 °F 88% 29.56 in 10.0 mi SW 6.9 mph - N/A   Overcast
4:56 AM 61.0 °F 57.9 °F 90% 29.53 in 10.0 mi WSW 5.8 mph - N/A   Overcast
5:32 AM 60.8 °F 57.2 °F 88% 29.58 in 10.0 mi SW 5.8 mph - N/A   Overcast
5:56 AM 60.1 °F 57.9 °F 93% 29.55 in 8.0 mi SSW 6.9 mph - 0.00 in Rain Light Rain
6:07 AM 60.8 °F 57.2 °F 88% 29.58 in 10.0 mi SSW 4.6 mph - 0.00 in   Overcast
6:21 AM 60.8 °F 57.2 °F 88% 29.59 in 10.0 mi SW 4.6 mph - 0.00 in   Mostly Cloudy
6:56 AM 61.0 °F 57.9 °F 90% 29.56 in 10.0 mi WSW 5.8 mph - 0.00 in   Mostly Cloudy
7:49 AM 62.6 °F 59.0 °F 88% 29.59 in 10.0 mi SW 5.8 mph - N/A   Mostly Cloudy
7:56 AM 62.1 °F 57.9 °F 86% 29.57 in 10.0 mi SSW 6.9 mph - N/A   Mostly Cloudy
8:26 AM 62.6 °F 59.0 °F 88% 29.59 in 10.0 mi WSW 6.9 mph - N/A   Overcast
8:56 AM 63.0 °F 59.0 °F 87% 29.57 in 10.0 mi SW 8.1 mph - N/A   Overcast
9:47 AM 64.4 °F 59.0 °F 83% 29.61 in 10.0 mi SW 6.9 mph - 0.00 in   Mostly Cloudy
9:56 AM 64.0 °F 59.0 °F 84% 29.59 in 10.0 mi SW 12.7 mph 17.3 mph 0.00 in   Overcast
10:56 AM 64.0 °F 59.0 °F 84% 29.59 in 10.0 mi SW 9.2 mph 17.3 mph 0.00 in   Overcast
11:56 AM 66.0 °F 59.0 °F 78% 29.60 in 10.0 mi SW 9.2 mph 17.3 mph N/A   Overcast
12:56 PM 63.0 °F 60.1 °F 90% 29.62 in 2.0 mi WSW 8.1 mph - 0.02 in Rain Light Rain
1:05 PM 62.6 °F 60.8 °F 94% 29.63 in 2.5 mi WSW 8.1 mph 17.3 mph 0.01 in Rain Light Rain
1:17 PM 64.4 °F 60.8 °F 88% 29.63 in 3.0 mi WSW 9.2 mph - 0.02 in Rain Light Rain
1:51 PM 66.2 °F 62.6 °F 88% 29.63 in 10.0 mi SW 8.1 mph - 0.02 in   Overcast
1:56 PM 66.9 °F 63.0 °F 87% 29.61 in 10.0 mi WSW 8.1 mph - 0.02 in   Overcast
2:56 PM 64.0 °F 59.0 °F 84% 29.63 in 10.0 mi West 6.9 mph - 0.01 in Rain Light Rain
3:56 PM 69.1 °F 62.1 °F 78% 29.63 in 10.0 mi SW 6.9 mph - 0.00 in   Overcast
4:20 PM 68.0 °F 60.8 °F 78% 29.66 in 10.0 mi SSW 5.8 mph - N/A   Overcast
4:56 PM 68.0 °F 61.0 °F 78% 29.65 in 10.0 mi SSW 5.8 mph - N/A   Overcast
5:03 PM 68.0 °F 60.8 °F 78% 29.68 in 10.0 mi SSW 9.2 mph - N/A   Mostly Cloudy
5:56 PM 64.9 °F 62.1 °F 90% 29.66 in 10.0 mi WSW 5.8 mph - 0.02 in Rain Light Rain
6:56 PM 64.9 °F 62.1 °F 90% 29.69 in 10.0 mi West 4.6 mph - 0.00 in   Overcast
7:56 PM 63.0 °F 60.1 °F 90% 29.70 in 10.0 mi Calm Calm - 0.01 in   Overcast
8:56 PM 62.1 °F 59.0 °F 90% 29.71 in 10.0 mi West 3.5 mph - N/A   Partly Cloudy
9:56 PM 61.0 °F 59.0 °F 93% 29.74 in 10.0 mi WSW 4.6 mph - N/A   Clear
10:56 PM 62.1 °F 60.1 °F 93% 29.74 in 10.0 mi Calm Calm - N/A   Clear
11:28 PM 60.8 °F 59.0 °F 94% 29.76 in 1.8 mi Calm Calm - N/A   Clear
11:36 PM 60.8 °F 59.0 °F 94% 29.77 in 4.0 mi Calm Calm - N/A   Clear
11:56 PM 60.1 °F 59.0 °F 96% 29.75 in 2.0 mi Calm Calm - N/A   Clear
11:59 PM 60.8 °F 59.0 °F 94% 29.77 in 1.0 mi Calm Calm - N/A   Mist